Regional Weather Roundup
Issued by NWS

Home | Current Version | Previous Version | Graphics & Text | Print | Product List | Glossary On
Versions: 1 2 3 4 5 6 7 8 9 10 11 12 13 14 15 16 17 18 19 20 21 22 23 24 25 26 27 28 29 30 31 32 33 34 35 36 37 38 39 40 41 42 43 44 45 46 47 48 49 50
000
ASUS43 KLMK 161302
RWRKY
KENTUCKY REGIONAL WEATHER ROUNDUP
NATIONAL WEATHER SERVICE LOUISVILLE KY
800 AM EST MON JAN 16 2017

NOTE "FAIR" INDICATES FEW OR NO CLOUDS BELOW 12,000 FEET
WITH NO SIGNIFICANT WEATHER AND/OR OBSTRUCTIONS TO VISIBILITY.

KYZ001>023-026-027-061>063-070>075-161400-
WESTERN AND SOUTH CENTRAL KENTUCKY

CITY           SKY/WX    TMP DP  RH WIND       PRES   REMARKS
PADUCAH        FOG       45  44  97 E6        30.16S VSB 1/2
HENDERSON      CLOUDY    43  39  87 E8        30.20F
OWENSBORO      MOCLDY    43  42  97 E6        30.22F
HOPKINSVILLE   CLOUDY    46  46 100 E7        30.19S
BOWLING GREEN  FOG       46  44  93 CALM      30.23S VSB 1/2
GLASGOW        NOT AVBL
$$

KYZ024-025-028>034-038-045-046-053-161400-
NORTH CENTRAL KENTUCKY

CITY           SKY/WX    TMP DP  RH WIND       PRES   REMARKS
LOUISVILLE/SDF CLOUDY    43  40  89 SE3       30.26S
LOUISVILLE/LOU CLOUDY    44  40  85 E3        30.26F
FORT KNOX      FOG       41  41 100 E6        30.23S VSB 1/2
$$

KYZ035>037-039>044-047>052-055>060-089>105-161400-
NORTHEAST KENTUCKY

CITY           SKY/WX    TMP DP  RH WIND       PRES   REMARKS
LEXINGTON      CLOUDY    43  40  89 E5        30.26F
COVINGTON      FOG       39  38  96 E5        30.27F VSB 1/2
FRANKFORT      CLOUDY    42  39  89 E5        30.26S
$$

KYZ054-064>069-076>088-106>120-161400-
SOUTHEAST KENTUCKY

CITY           SKY/WX    TMP DP  RH WIND       PRES   REMARKS
JACKSON        FOG       41  40  96 CALM      30.29R VSB 1/4
LONDON         CLOUDY    47  44  90 CALM      30.27R
SOMERSET       FOG       43  43 100 CALM      30.28S VSB 3/4
MIDDLESBORO    CLOUDY    51  51 100 CALM      30.30R
MONTICELLO     FOG       44  44 100 VRB5      30.28S VSB 1/4
$$





USA.gov is the U.S. government's official web portal to all federal, state and local government web resources and services.